When you browse on this site, cookies collect data to enhance your experience and personalize the content and advertising you see.
Visit our Privacy Policy to learn more. By continuing to use the site, you agree to this use of cookies and data.
  • In Czech Republic
  • List of Countries
  • For 7 days
  • Water Temperature
  • Satellite Maps
  • Weather Map
  • Weather Widgets
  • user-avatar
    Login

    Hourly Weather Milford Mill

    Today, 23 July, Tuesday

    Time Temperature Precipitation Wind Pressure Humidity
    00:00 +24°C° 0.8 mm 3 mps 743 mmHg 84%
    01:00 +22°C° 0.8 mm 4 mps 743 mmHg 86%
    02:00 +22°C° 2.2 mm 4 mps 743 mmHg 86%
    03:00 +21°C° 2.2 mm 4 mps 743 mmHg 85%
    04:00 +20°C° 2.2 mm 4 mps 743 mmHg 85%
    05:00 +21°C° 0 mm 4 mps 744 mmHg 84%
    06:00 +21°C° 0 mm 3 mps 744 mmHg 83%
    07:00 +21°C° 0 mm 2 mps 745 mmHg 82%
    08:00 +21°C° 0.3 mm 2 mps 745 mmHg 82%
    09:00 +21°C° 0.3 mm 2 mps 745 mmHg 83%
    10:00 +21°C° 0.3 mm 2 mps 745 mmHg 84%
    11:00 +23°C° 0.1 mm 1 mps 745 mmHg 78%
    12:00 +24°C° 0.1 mm 1 mps 745 mmHg 73%
    13:00 +26°C° 0.1 mm 1 mps 745 mmHg 67%
    14:00 +26°C° 0.3 mm 1 mps 745 mmHg 67%
    15:00 +26°C° 0.3 mm 1 mps 745 mmHg 66%
    16:00 +26°C° 0.3 mm 2 mps 744 mmHg 66%
    17:00 +26°C° 0.5 mm 2 mps 745 mmHg 69%
    18:00 +25°C° 0.5 mm 2 mps 745 mmHg 72%
    19:00 +24°C° 0.5 mm 2 mps 745 mmHg 74%
    20:00 +24°C° 0.1 mm 2 mps 745 mmHg 76%
    21:00 +23°C° 0.1 mm 2 mps 745 mmHg 77%
    22:00 +21°C° 0.1 mm 3 mps 745 mmHg 78%
    23:00 +21°C° 0 mm 3 mps 745 mmHg 77%

    Tomorrow, 24 July, Wednesday

    Time Temperature Precipitation Wind Pressure Humidity
    00:00 +21°C° 0 mm 3 mps 745 mmHg 77%
    01:00 +20°C° 0 mm 4 mps 745 mmHg 76%
    02:00 +20°C° 0 mm 4 mps 745 mmHg 75%
    03:00 +19°C° 0 mm 4 mps 745 mmHg 75%
    04:00 +19°C° 0 mm 4 mps 745 mmHg 75%
    05:00 +19°C° 0 mm 4 mps 746 mmHg 73%
    06:00 +19°C° 0 mm 4 mps 746 mmHg 71%
    07:00 +20°C° 0 mm 4 mps 747 mmHg 69%
    08:00 +21°C° 0 mm 4 mps 747 mmHg 66%
    09:00 +23°C° 0 mm 4 mps 748 mmHg 63%
    10:00 +26°C° 0 mm 3 mps 748 mmHg 60%
    11:00 +26°C° 0 mm 4 mps 748 mmHg 57%
    12:00 +27°C° 0 mm 4 mps 748 mmHg 54%
    13:00 +28°C° 0 mm 4 mps 748 mmHg 50%
    14:00 +28°C° 0 mm 4 mps 747 mmHg 50%
    15:00 +28°C° 0 mm 4 mps 747 mmHg 49%
    16:00 +28°C° 0 mm 4 mps 747 mmHg 49%
    17:00 +27°C° 0 mm 3 mps 747 mmHg 51%
    18:00 +26°C° 0 mm 2 mps 748 mmHg 52%
    19:00 +25°C° 0 mm 2 mps 748 mmHg 54%
    20:00 +25°C° 0 mm 2 mps 749 mmHg 54%
    21:00 +24°C° 0 mm 1 mps 749 mmHg 54%
    22:00 +23°C° 0 mm 1 mps 749 mmHg 53%
    23:00 +21°C° 0 mm 2 mps 749 mmHg 55%

    Day after tomorrow, 25 July, Thursday

    Time Temperature Precipitation Wind Pressure Humidity
    00:00 +21°C° 0 mm 2 mps 749 mmHg 56%
    01:00 +20°C° 0 mm 2 mps 749 mmHg 57%
    02:00 +20°C° 0 mm 2 mps 749 mmHg 59%
    03:00 +20°C° 0 mm 2 mps 750 mmHg 61%
    04:00 +19°C° 0 mm 2 mps 750 mmHg 64%
    05:00 +20°C° 0 mm 2 mps 750 mmHg 65%
    06:00 +20°C° 0 mm 2 mps 751 mmHg 66%
    07:00 +21°C° 0 mm 2 mps 751 mmHg 67%
    08:00 +24°C° 0 mm 2 mps 751 mmHg 63%
    09:00 +26°C° 0 mm 2 mps 752 mmHg 58%
    10:00 +27°C° 0 mm 3 mps 752 mmHg 53%
    11:00 +28°C° 0 mm 3 mps 752 mmHg 50%
    12:00 +29°C° 0 mm 3 mps 752 mmHg 47%
    13:00 +30°C° 0 mm 3 mps 751 mmHg 44%
    14:00 +30°C° 0 mm 2 mps 751 mmHg 45%
    15:00 +29°C° 0 mm 2 mps 751 mmHg 46%
    16:00 +29°C° 0 mm 2 mps 751 mmHg 47%
    17:00 +28°C° 0 mm 1 mps 751 mmHg 50%
    18:00 +27°C° 0 mm 1 mps 752 mmHg 53%
    19:00 +24°C° 0 mm 0 mps 752 mmHg 56%
    20:00 +24°C° 0 mm 0 mps 752 mmHg 57%
    21:00 +23°C° 0 mm 0 mps 753 mmHg 59%
    22:00 +22°C° 0 mm 0 mps 753 mmHg 60%
    23:00 +22°C° 0 mm 0 mps 753 mmHg 61%

    26 July, Friday

    Time Temperature Precipitation Wind Pressure Humidity
    00:00 +23°C° 0 mm 1 mps 753 mmHg 61%
    01:00 +23°C° 0 mm 1 mps 753 mmHg 62%
    02:00 +23°C° 0 mm 1 mps 753 mmHg 63%
    03:00 +22°C° 0 mm 1 mps 753 mmHg 65%
    04:00 +20°C° 0 mm 0 mps 753 mmHg 66%
    05:00 +21°C° 0 mm 0 mps 754 mmHg 65%
    06:00 +22°C° 0 mm 0 mps 754 mmHg 64%
    07:00 +22°C° 0 mm 0 mps 755 mmHg 63%
    08:00 +24°C° 0 mm 0 mps 755 mmHg 58%
    09:00 +26°C° 0 mm 0 mps 755 mmHg 53%
    10:00 +28°C° 0 mm 0 mps 755 mmHg 47%
    11:00 +31°C° 0 mm 1 mps 755 mmHg 44%
    12:00 +31°C° 0 mm 1 mps 755 mmHg 41%
    13:00 +32°C° 0 mm 1 mps 755 mmHg 39%
    14:00 +32°C° 0 mm 1 mps 755 mmHg 40%
    15:00 +32°C° 0 mm 2 mps 754 mmHg 41%
    16:00 +31°C° 0 mm 2 mps 754 mmHg 42%
    17:00 +30°C° 0 mm 2 mps 754 mmHg 45%
    18:00 +29°C° 0 mm 2 mps 754 mmHg 48%
    19:00 +28°C° 0 mm 2 mps 754 mmHg 52%
    20:00 +27°C° 0 mm 2 mps 754 mmHg 53%
    21:00 +26°C° 0 mm 2 mps 755 mmHg 54%
    22:00 +26°C° 0 mm 2 mps 755 mmHg 56%
    23:00 +25°C° 0 mm 2 mps 755 mmHg 59%

    27 July, Saturday

    Time Temperature Precipitation Wind Pressure Humidity
    00:00 +24°C° 0 mm 2 mps 755 mmHg 62%
    01:00 +24°C° 0 mm 1 mps 755 mmHg 64%
    02:00 +24°C° 0 mm 1 mps 755 mmHg 67%
    03:00 +23°C° 0 mm 1 mps 755 mmHg 69%
    04:00 +23°C° 0 mm 1 mps 755 mmHg 72%
    05:00 +24°C° 0 mm 1 mps 756 mmHg 71%
    06:00 +24°C° 0 mm 1 mps 756 mmHg 69%
    07:00 +25°C° 0 mm 1 mps 756 mmHg 68%
    08:00 +27°C° 0 mm 1 mps 756 mmHg 62%
    09:00 +28°C° 0 mm 1 mps 756 mmHg 55%
    10:00 +30°C° 0 mm 1 mps 756 mmHg 49%
    11:00 +31°C° 0 mm 2 mps 756 mmHg 46%
    12:00 +31°C° 0 mm 2 mps 756 mmHg 43%
    13:00 +33°C° 0 mm 3 mps 756 mmHg 40%
    14:00 +33°C° 0 mm 3 mps 755 mmHg 41%
    15:00 +33°C° 0 mm 3 mps 755 mmHg 42%
    16:00 +33°C° 0 mm 3 mps 755 mmHg 43%
    17:00 +30°C° 0 mm 2 mps 755 mmHg 48%
    18:00 +29°C° 0 mm 2 mps 755 mmHg 53%
    19:00 +28°C° 0 mm 2 mps 754 mmHg 58%
    20:00 +27°C° 0 mm 2 mps 755 mmHg 60%
    21:00 +26°C° 0 mm 2 mps 755 mmHg 61%
    22:00 +26°C° 0 mm 2 mps 755 mmHg 63%
    23:00 +25°C° 0 mm 2 mps 755 mmHg 65%

    28 July, Sunday

    Time Temperature Precipitation Wind Pressure Humidity
    00:00 +25°C° 0 mm 2 mps 755 mmHg 66%
    01:00 +24°C° 0 mm 2 mps 755 mmHg 68%
    02:00 +24°C° 0 mm 1 mps 755 mmHg 70%
    03:00 +23°C° 0 mm 1 mps 755 mmHg 72%
    04:00 +23°C° 0 mm 1 mps 755 mmHg 74%
    05:00 +23°C° 0 mm 1 mps 755 mmHg 73%
    06:00 +24°C° 0 mm 1 mps 755 mmHg 71%
    07:00 +25°C° 0 mm 1 mps 755 mmHg 69%
    08:00 +27°C° 0 mm 1 mps 755 mmHg 62%
    09:00 +28°C° 0 mm 1 mps 755 mmHg 56%
    10:00 +30°C° 0 mm 1 mps 755 mmHg 49%
    11:00 +31°C° 0 mm 2 mps 755 mmHg 47%
    12:00 +31°C° 0 mm 2 mps 754 mmHg 45%
    13:00 +33°C° 0 mm 3 mps 754 mmHg 43%
    14:00 +33°C° 0 mm 3 mps 753 mmHg 44%
    15:00 +33°C° 0 mm 3 mps 753 mmHg 44%
    16:00 +31°C° 0 mm 3 mps 753 mmHg 45%
    17:00 +30°C° 0 mm 2 mps 753 mmHg 47%
    18:00 +29°C° 0 mm 2 mps 753 mmHg 49%
    19:00 +28°C° 0 mm 2 mps 753 mmHg 51%
    20:00 +27°C° 0 mm 2 mps 753 mmHg 54%
    21:00 +26°C° 0 mm 2 mps 753 mmHg 57%
    22:00 +25°C° 0 mm 2 mps 753 mmHg 61%
    23:00 +25°C° 0 mm 2 mps 753 mmHg 64%
    Show more